Cahokia, IL

6:51 AM CDT on July 23, 2017 (GMT -0500)
Saint Louis Downtown

Weather History for KCPS - March, 2013

Change the Weather History Date:

Monday, March 18, 2013

  Actual Average Record
Temperature  
Mean Temperature 44 °F -  
Max Temperature 50 °F 55 °F 80 °F (2012)
Min Temperature 37 °F 39 °F 18 °F (1965)
Degree Days  
Heating Degree Days 22    
Moisture  
Dew Point 33 °F    
Average Humidity 75    
Maximum Humidity 96    
Minimum Humidity 45    
Precipitation  
Precipitation 0.01 in - - ()
Sea Level Pressure  
Sea Level Pressure 29.80 in    
Wind  
Wind Speed 8 mph (WNW)    
Max Wind Speed 17 mph    
Max Gust Speed 26 mph    
Visibility 9 miles    
Events Rain    
Averages and records for this station are not official NWS values.
T = Trace of Precipitation, MM = Missing Value Source: NWS Daily Summary

Daily Weather History Graph

Daily Weather History Graph

Search for Another Location

Airport or City:

Trip Planner

Search our weather history database for the weather conditions in past years. The results will help you decide how hot, cold, wet, or windy it might be!

Date:

Astronomy

Mar. 18, 2013 Rise Set
Actual Time 7:06 AM CDT 7:10 PM CDT
Civil Twilight 6:40 AM CDT 7:37 PM CDT
Nautical Twilight 6:09 AM CDT 8:08 PM CDT
Astronomical Twilight 5:38 AM CDT 8:39 PM CDT
Moon 11:10 AM CDT (3/18) 1:06 AM CDT (3/18)
Length of Visible Light 12h 56m
Length of Day
12h 04m
Waxing Crescent, 41% of the Moon is Illuminated
Mar 18
Waxing Crescent
Mar 19
First Quarter
Mar 27
Full
Apr 2
Last Quarter
Apr 10
New

Hourly Weather History & Observations

Time (CDT) Temp. Windchill Dew Point Humidity Pressure Visibility Wind Dir Wind Speed Gust Speed Precip Events Conditions
12:53 AM 37.0 °F 32.4 °F 35.1 °F 93% 29.77 in 10.0 mi NE 5.8 mph - 0.00 in Rain Light Rain
1:53 AM 37.0 °F 32.4 °F 35.1 °F 93% 29.74 in 10.0 mi NE 5.8 mph - 0.00 in   Overcast
2:53 AM 37.9 °F 33.5 °F 36.0 °F 93% 29.72 in 10.0 mi North 5.8 mph - N/A   Overcast
3:53 AM 37.9 °F 35.5 °F 36.0 °F 93% 29.70 in 7.0 mi North 3.5 mph - N/A   Overcast
4:53 AM 37.0 °F 32.4 °F 36.0 °F 96% 29.72 in 3.0 mi NNW 5.8 mph - 0.01 in   Overcast
5:53 AM 37.0 °F 34.5 °F 36.0 °F 96% 29.70 in 4.0 mi NNW 3.5 mph - N/A   Overcast
6:53 AM 37.0 °F - 36.0 °F 96% 29.71 in 6.0 mi Calm Calm - N/A   Overcast
7:53 AM 37.9 °F 34.4 °F 36.0 °F 93% 29.73 in 5.0 mi West 4.6 mph - N/A   Overcast
8:53 AM 37.9 °F 33.5 °F 36.0 °F 93% 29.72 in 7.0 mi West 5.8 mph - N/A   Overcast
9:53 AM 39.9 °F 35.8 °F 37.0 °F 89% 29.73 in 10.0 mi West 5.8 mph - N/A   Overcast
10:00 AM 39.2 °F 34.2 °F 35.6 °F 87% 29.72 in 10.0 mi WNW 6.9 mph - N/A   Overcast
10:39 AM 41.0 °F 33.5 °F 35.6 °F 81% 29.77 in 10.0 mi West 13.8 mph 20.7 mph N/A   Overcast
10:53 AM 41.0 °F 34.3 °F 36.0 °F 82% 29.78 in 10.0 mi West 11.5 mph 21.9 mph N/A   Overcast
11:53 AM 42.1 °F 34.5 °F 35.1 °F 76% 29.79 in 10.0 mi West 15.0 mph - N/A   Overcast
12:53 PM 42.1 °F 35.7 °F 35.1 °F 76% 29.80 in 10.0 mi West 11.5 mph 21.9 mph N/A   Overcast
1:53 PM 45.0 °F 39.3 °F 36.0 °F 71% 29.80 in 10.0 mi WNW 11.5 mph - N/A   Overcast
2:53 PM 45.0 °F 37.6 °F 36.0 °F 71% 29.81 in 10.0 mi WNW 17.3 mph - N/A   Overcast
3:53 PM 46.0 °F 39.3 °F 36.0 °F 68% 29.82 in 10.0 mi WNW 16.1 mph 25.3 mph N/A   Overcast
4:12 PM 48.2 °F - 37.4 °F 66% 29.82 in 10.0 mi West 12.7 mph 24.2 mph N/A   Mostly Cloudy
4:53 PM 46.9 °F - 33.1 °F 59% 29.83 in 10.0 mi West 15.0 mph 23.0 mph N/A   Scattered Clouds
5:53 PM 50.0 °F - 30.9 °F 48% 29.83 in 10.0 mi WNW 11.5 mph 26.5 mph N/A   Clear
6:53 PM 48.9 °F - 30.9 °F 50% 29.86 in 10.0 mi West 8.1 mph - N/A   Clear
7:53 PM 45.0 °F 39.7 °F 28.9 °F 53% 29.89 in 10.0 mi WNW 10.4 mph - N/A   Clear
8:53 PM 45.0 °F 39.7 °F 28.0 °F 52% 29.91 in 10.0 mi WNW 10.4 mph - N/A   Clear
9:53 PM 43.0 °F 36.4 °F 26.1 °F 51% 29.95 in 10.0 mi NW 12.7 mph - N/A   Clear
10:53 PM 42.1 °F 33.9 °F 23.0 °F 47% 29.99 in 10.0 mi NW 17.3 mph 25.3 mph N/A   Clear
11:53 PM 39.9 °F 31.1 °F 19.9 °F 45% 30.03 in 10.0 mi WNW 17.3 mph 25.3 mph N/A   Clear